• In France
  • List of Countries
  • For 7 days
  • Water Temperature
  • Satellite Maps
  • Weather Map
  • Weather Widgets
  • user-avatar
    Login

    Hourly Weather Kapan

    Today, 20 November, Monday

    Time Temperature Precipitation Wind Pressure Humidity
    00:00 +12°C° 0 mm 2 mps 684 mmHg 33%
    01:00 +12°C° 0 mm 2 mps 684 mmHg 33%
    02:00 +12°C° 0 mm 2 mps 684 mmHg 34%
    03:00 +11°C° 0 mm 3 mps 684 mmHg 35%
    04:00 +11°C° 0 mm 3 mps 684 mmHg 37%
    05:00 +10°C° 0 mm 3 mps 684 mmHg 40%
    06:00 +10°C° 0 mm 3 mps 684 mmHg 42%
    07:00 +11°C° 0 mm 3 mps 684 mmHg 40%
    08:00 +13°C° 0 mm 3 mps 685 mmHg 37%
    09:00 +14°C° 0 mm 3 mps 685 mmHg 36%
    10:00 +16°C° 0 mm 3 mps 685 mmHg 35%
    11:00 +17°C° 0 mm 3 mps 685 mmHg 34%
    12:00 +18°C° 0 mm 3 mps 684 mmHg 33%
    13:00 +18°C° 0 mm 3 mps 684 mmHg 33%
    14:00 +18°C° 0 mm 3 mps 684 mmHg 34%
    15:00 +18°C° 0 mm 3 mps 683 mmHg 34%
    16:00 +16°C° 0 mm 2 mps 683 mmHg 38%
    17:00 +15°C° 0 mm 2 mps 683 mmHg 42%
    18:00 +13°C° 0 mm 1 mps 683 mmHg 46%
    19:00 +13°C° 0 mm 1 mps 682 mmHg 47%
    20:00 +13°C° 0 mm 2 mps 682 mmHg 48%
    21:00 +12°C° 0 mm 2 mps 682 mmHg 48%
    22:00 +12°C° 0 mm 2 mps 682 mmHg 48%
    23:00 +12°C° 0 mm 2 mps 682 mmHg 49%

    Tomorrow, 21 November, Tuesday

    Time Temperature Precipitation Wind Pressure Humidity
    00:00 +12°C° 0 mm 2 mps 681 mmHg 49%
    01:00 +12°C° 0 mm 2 mps 681 mmHg 50%
    02:00 +12°C° 0 mm 2 mps 681 mmHg 50%
    03:00 +12°C° 0 mm 2 mps 681 mmHg 51%
    04:00 +10°C° 0 mm 2 mps 681 mmHg 52%
    05:00 +10°C° 0 mm 2 mps 680 mmHg 54%
    06:00 +10°C° 0 mm 2 mps 680 mmHg 55%
    07:00 +12°C° 0 mm 2 mps 680 mmHg 53%
    08:00 +14°C° 0 mm 1 mps 680 mmHg 50%
    09:00 +15°C° 0 mm 1 mps 680 mmHg 47%
    10:00 +16°C° 0 mm 2 mps 680 mmHg 46%
    11:00 +16°C° 0 mm 2 mps 680 mmHg 45%
    12:00 +17°C° 0 mm 2 mps 679 mmHg 43%
    13:00 +17°C° 0.2 mm 2 mps 679 mmHg 46%
    14:00 +16°C° 0.2 mm 2 mps 679 mmHg 49%
    15:00 +16°C° 0.2 mm 2 mps 678 mmHg 52%
    16:00 +15°C° 0 mm 2 mps 678 mmHg 56%
    17:00 +14°C° 0 mm 2 mps 678 mmHg 60%
    18:00 +13°C° 0 mm 1 mps 677 mmHg 64%
    19:00 +13°C° 0 mm 2 mps 677 mmHg 65%
    20:00 +12°C° 0 mm 2 mps 677 mmHg 66%
    21:00 +12°C° 0 mm 2 mps 677 mmHg 67%
    22:00 +12°C° 0 mm 2 mps 677 mmHg 68%
    23:00 +11°C° 0 mm 3 mps 676 mmHg 69%

    Day after tomorrow, 22 November, Wednesday

    Time Temperature Precipitation Wind Pressure Humidity
    00:00 +10°C° 0 mm 3 mps 676 mmHg 70%
    01:00 +10°C° 0 mm 3 mps 676 mmHg 70%
    02:00 +10°C° 0 mm 3 mps 676 mmHg 70%
    03:00 +10°C° 0 mm 3 mps 676 mmHg 71%
    04:00 +9°C° 0 mm 2 mps 675 mmHg 70%
    05:00 +9°C° 0 mm 2 mps 675 mmHg 69%
    06:00 +9°C° 0 mm 2 mps 675 mmHg 69%
    07:00 +10°C° 0 mm 2 mps 675 mmHg 64%
    08:00 +12°C° 0 mm 2 mps 676 mmHg 60%
    09:00 +14°C° 0 mm 2 mps 676 mmHg 56%
    10:00 +13°C° 0 mm 3 mps 676 mmHg 53%
    11:00 +13°C° 0 mm 3 mps 676 mmHg 49%
    12:00 +14°C° 0 mm 3 mps 676 mmHg 46%
    13:00 +13°C° 0.1 mm 3 mps 676 mmHg 48%
    14:00 +12°C° 0.1 mm 3 mps 676 mmHg 50%
    15:00 +12°C° 0.1 mm 3 mps 676 mmHg 52%
    16:00 +10°C° 0 mm 3 mps 676 mmHg 58%
    17:00 +9°C° 0 mm 2 mps 677 mmHg 64%
    18:00 +7°C° 0 mm 2 mps 677 mmHg 70%
    19:00 +7°C° 0.1 mm 2 mps 678 mmHg 71%
    20:00 +6°C° 0.1 mm 2 mps 678 mmHg 72%
    21:00 +6°C° 0.1 mm 2 mps 679 mmHg 74%
    22:00 +5°C° 0 mm 2 mps 679 mmHg 74%
    23:00 +5°C° 0 mm 2 mps 679 mmHg 74%

    23 November, Thursday

    Time Temperature Precipitation Wind Pressure Humidity
    00:00 +4°C° 0 mm 2 mps 679 mmHg 74%
    01:00 +4°C° 0.2 mm 2 mps 679 mmHg 75%
    02:00 +4°C° 0.2 mm 2 mps 679 mmHg 76%
    03:00 +5°C° 0.2 mm 1 mps 679 mmHg 77%
    04:00 +4°C° 0.3 mm 1 mps 679 mmHg 78%
    05:00 +4°C° 0.3 mm 1 mps 679 mmHg 79%
    06:00 +4°C° 0.3 mm 1 mps 680 mmHg 79%
    07:00 +4°C° 0.2 mm 1 mps 680 mmHg 76%
    08:00 +4°C° 0.2 mm 1 mps 681 mmHg 72%
    09:00 +5°C° 0.2 mm 1 mps 681 mmHg 69%
    10:00 +4°C° 0 mm 2 mps 681 mmHg 63%
    11:00 +5°C° 0 mm 2 mps 681 mmHg 58%
    12:00 +6°C° 0 mm 2 mps 681 mmHg 52%
    13:00 +6°C° 0 mm 2 mps 681 mmHg 53%
    14:00 +5°C° 0 mm 2 mps 681 mmHg 55%
    15:00 +5°C° 0 mm 2 mps 681 mmHg 56%
    16:00 +4°C° 0.1 mm 2 mps 681 mmHg 61%
    17:00 +5°C° 0.1 mm 1 mps 681 mmHg 67%
    18:00 +4°C° 0.1 mm 1 mps 682 mmHg 73%
    19:00 +4°C° 0 mm 1 mps 682 mmHg 73%
    20:00 +3°C° 0 mm 1 mps 682 mmHg 73%
    21:00 +3°C° 0 mm 1 mps 683 mmHg 73%
    22:00 +3°C° 0 mm 1 mps 683 mmHg 72%
    23:00 +2°C° 0 mm 1 mps 683 mmHg 71%

    24 November, Friday

    Time Temperature Precipitation Wind Pressure Humidity
    00:00 +2°C° 0 mm 1 mps 683 mmHg 71%
    01:00 +2°C° 0 mm 1 mps 683 mmHg 71%
    02:00 +2°C° 0 mm 1 mps 683 mmHg 71%
    03:00 +2°C° 0 mm 1 mps 684 mmHg 71%
    04:00 +1°C° 0 mm 1 mps 684 mmHg 71%
    05:00 +1°C° 0 mm 1 mps 684 mmHg 71%
    06:00 0°C° 0 mm 1 mps 684 mmHg 71%
    07:00 +1°C° 0 mm 1 mps 685 mmHg 66%
    08:00 +2°C° 0 mm 1 mps 685 mmHg 61%
    09:00 +3°C° 0 mm 1 mps 686 mmHg 57%
    10:00 +4°C° 0 mm 1 mps 685 mmHg 54%
    11:00 +5°C° 0 mm 1 mps 685 mmHg 52%
    12:00 +4°C° 0 mm 2 mps 685 mmHg 50%
    13:00 +4°C° 0.1 mm 2 mps 684 mmHg 53%
    14:00 +4°C° 0.1 mm 2 mps 684 mmHg 56%
    15:00 +3°C° 0.1 mm 2 mps 684 mmHg 59%
    16:00 +4°C° 0.1 mm 1 mps 684 mmHg 63%
    17:00 +3°C° 0.1 mm 1 mps 684 mmHg 68%
    18:00 +2°C° 0.1 mm 1 mps 685 mmHg 72%
    19:00 +2°C° 0.1 mm 1 mps 685 mmHg 73%
    20:00 +2°C° 0.1 mm 1 mps 685 mmHg 74%
    21:00 +2°C° 0.1 mm 1 mps 685 mmHg 75%
    22:00 +2°C° 0.2 mm 1 mps 685 mmHg 75%
    23:00 +1°C° 0.2 mm 1 mps 686 mmHg 76%

    25 November, Saturday

    Time Temperature Precipitation Wind Pressure Humidity
    00:00 +1°C° 0.2 mm 1 mps 686 mmHg 76%
    01:00 +1°C° 0.1 mm 1 mps 686 mmHg 76%
    02:00 0°C° 0.1 mm 1 mps 686 mmHg 75%
    03:00 0°C° 0.1 mm 1 mps 686 mmHg 75%
    04:00 0°C° 0 mm 1 mps 687 mmHg 72%
    05:00 -3°C° 0 mm 2 mps 687 mmHg 70%
    06:00 -3°C° 0 mm 2 mps 687 mmHg 68%
    07:00 -2°C° 0 mm 2 mps 688 mmHg 62%
    08:00 -1°C° 0 mm 2 mps 688 mmHg 57%
    09:00 +1°C° 0 mm 2 mps 689 mmHg 51%
    10:00 +2°C° 0 mm 2 mps 689 mmHg 47%
    11:00 +2°C° 0 mm 2 mps 689 mmHg 43%
    12:00 +2°C° 0 mm 3 mps 689 mmHg 39%
    13:00 +3°C° 0 mm 2 mps 689 mmHg 39%
    14:00 +3°C° 0 mm 2 mps 689 mmHg 38%
    15:00 +3°C° 0 mm 2 mps 689 mmHg 37%
    16:00 +2°C° 0 mm 2 mps 689 mmHg 40%
    17:00 -1°C° 0 mm 2 mps 690 mmHg 44%
    18:00 -2°C° 0 mm 2 mps 690 mmHg 47%
    19:00 -2°C° 0 mm 2 mps 690 mmHg 46%
    20:00 -3°C° 0 mm 2 mps 690 mmHg 46%
    21:00 -3°C° 0 mm 2 mps 691 mmHg 46%
    22:00 -3°C° 0 mm 2 mps 691 mmHg 46%
    23:00 -3°C° 0 mm 2 mps 691 mmHg 46%
    Show more